Regional Weather Roundup
Issued by NWS

Home | Current Version | Previous Version | Graphics & Text | Print | Product List | Glossary On
Versions: 1 2 3 4 5 6 7 8 9 10 11 12 13 14 15 16 17 18 19 20 21 22 23 24 25 26 27
000
ASUS45 KBOU 050107
RWRCO

WEATHER ROUNDUP FOR COLORADO
NATIONAL WEATHER SERVICE DENVER/BOULDER CO
600 PM MST SUN DEC 04 2016

NOTE: "FAIR" INDICATES FEW OR NO CLOUDS BELOW 12000 FEET WITH NO
SIGNIFICANT WEATHER AND/OR OBSTRUCTIONS TO VISIBILITY.

COZ001>005-013-030-031-050200-
...NORTHWEST COLORADO...

CITY           SKY/WX    TMP DP  RH WIND       PRES   REMARKS
CRAIG          FAIR      30  14  51 E5        29.95F WCI  25
HAYDEN         CLOUDY    27  12  54 SE9       29.95F WCI  17
MEEKER         FAIR      35  13  40 NW6       29.96F WCI  30
MOUNT WERNER   NOT AVBL
STEAMBOAT SPGS CLOUDY    25  16  68 CALM      29.95S
WALDEN           N/A     30  14  51 SE8       29.92S WCI  23
$$

COZ006>008-011-050200-
...WEST CENTRAL VALLEYS...

CITY           SKY/WX    TMP DP  RH WIND       PRES   REMARKS
GRAND JUNCTION CLOUDY    31  20  63 CALM      30.06S
MONTROSE       FAIR      29  17  61 CALM      30.07F
EAGLE          CLOUDY    30  16  55 SE7       30.02S WCI  23
RIFLE          CLOUDY    33  18  53 CALM      30.04F
DELTA          NOT AVBL
NUCLA          FAIR      37   9  30 E3        30.10F
$$

COZ017>023-064>068-050200-
...SOUTHWEST COLORADO...

CITY           SKY/WX    TMP DP  RH WIND       PRES   REMARKS
DURANGO        FAIR      32  19  58 CALM      30.08S
CORTEZ         FAIR      27  21  78 SE3       30.10R
PAGOSA SPRINGS FAIR      30  20  66 CALM      30.08S
TELLURIDE      NOT AVBL
WOLF CREEK PAS FAIR      18   3  53 S13       30.14S WCI   4
$$

COZ009-010-012-014-032>034-037-058>063-050200-
...CENTRAL COLORADO...

CITY           SKY/WX    TMP DP  RH WIND       PRES   REMARKS
ASPEN          CLOUDY    26  13  57 S5        30.01S WCI  20
BUENA VISTA    FAIR      37  11  35 NW12      29.94S
COPPER MTN     FAIR      25  12  58 MISG      30.00F
BERTHOUD PASS  CLOUDY    14   3  62 NW18G28   29.97R WCI  -3
COTTONWOOD PAS FAIR      34  12  40 W10G23    29.94S WCI  26
GUNNISON       FAIR      20   9  62 CALM      30.08R
KREMMLING      FAIR      32  16  51 CALM      29.96F
LEADVILLE      CLOUDY    29  12  49 N10G21    29.99R WCI  20
MONARCH PASS   FAIR      18   9  68 W46       30.11F WCI  -5
SALIDA         FAIR      41  11  30 SW18G30   29.99F
SUNLIGHT       CLOUDY    19  18  93 SW20G35   30.05S WCI   4
WILKERSON PASS FAIR      27  10  50 W20G33    29.94R WCI  13
$$

COZ069>075-050200-
...SAN LUIS VALLEY/SANGRE DE CRISTO MOUNTAINS...

CITY           SKY/WX    TMP DP  RH WIND       PRES   REMARKS
ALAMOSA        FAIR      23  13  65 N3        30.04R
LA VETA PASS   FAIR      23   7  50 NE32G39   29.98R WCI   5
SAGUACHE       FAIR      19   3  49 N3        30.04F
$$

COZ035-036-038>040-050200-
...NORTHERN COLORADO FRONT RANGE...

CITY           SKY/WX    TMP DP  RH WIND       PRES   REMARKS
DENVER INTL AP FAIR      34  12  40 SE12      29.79F WCI  25
DMNS CITY PARK   N/A     45   8  22 E7G16     29.79S
AURORA         PTCLDY    41   7  24 S7        29.80F
FRONT RANGE AP NOT AVBL
ERIE MUNI ARPT FAIR      44  13  29 SE14      29.78F
BOULDER MUN AP FAIR      46  16  29 SE8       29.76S
CENTENNIAL     FAIR      40   9  28 SE8       29.79F
BROOMFIELD     PTCLDY    46  14  27 E8        29.80F
FORT COLLINS   FAIR      48  12  23 W29G39    29.76S
LONGMONT       FAIR      41  16  35 E10       29.79S
$$

COZ041-046-047-076>085-087-088-050200-
...PIKES PEAK/PALMER DIVIDE AND SOUTHERN FOOTHILLS...

CITY           SKY/WX    TMP DP  RH WIND       PRES   REMARKS
COLO. SPRINGS  FAIR      32   7  35 N5        29.87S WCI  27
A. F. ACADEMY  FAIR      29  11  46 N3        29.85S
SCHRIEVER AFB  NOT AVBL
ELLICOTT       LGT RAIN N/A N/A N/A E7        29.85F
FALCON         FAIR      29   8  39 CALM      29.87S
FORT CARSON    FAIR      36  10  33 S2        29.85S
LIMON          FAIR      26   8  46 SE6       29.86S WCI  19
MONUMENT HILL  FAIR      28  10  47 S9        29.85F WCI  20
TRINIDAD       FAIR      43  13  29 SW15      29.88S
$$

COZ042>045-048>051-090-091-050200-
...NORTHEAST COLORADO...

CITY           SKY/WX    TMP DP  RH WIND       PRES   REMARKS
GREELEY ARPT   FAIR      28  14  55 NE6       29.77F WCI  22
AKRON          FAIR      35   9  33 SW10      29.78F WCI  27
BURLINGTON     FAIR      35  11  36 S15       29.86F WCI  25
WRAY           NOT AVBL
STERLING       FAIR      30  14  51 W7        29.76F WCI  23
HOLYOKE        FAIR      36  12  38 S10       29.79F
FORT MORGAN    FAIR      32   9  37 S7        29.78F WCI  26
$$

COZ086-089-092>099-050200-
...SOUTHEAST COLORADO...

CITY           SKY/WX    TMP DP  RH WIND       PRES   REMARKS
PUEBLO         FAIR      36  12  37 N12       29.83S
LA JUNTA       FAIR      38  14  37 E9        29.83F
LAMAR          FAIR      33  14  45 NE5       29.85F WCI  29
SPRINGFIELD      N/A     38  15  39 S17       29.90F
$$




USA.gov is the U.S. government's official web portal to all federal, state and local government web resources and services.